Regional Weather Roundup
Issued by NWS Albany, NY

Home | Current Version | Previous Version | Text Only | Print | Product List | Glossary On
Versions: 1 2 3 4 5 6 7 8 9 10 11 12 13 14 15 16 17 18 19 20 21 22 23 24 25 26 27
000
ASUS41 KALY 280910
RWRALY

NEW YORK STATE HOURLY WEATHER ROUNDUP
NATIONAL WEATHER SERVICE ALBANY NY
500 AM EDT TUE MAR 28 2017

NOTE: "FAIR" INDICATES FEW OR NO CLOUDS BELOW 12,000 FEET WITH NO
SIGNIFICANT WEATHER AND/OR NO OBSTRUCTIONS TO VISIBILITY.

NYZ032-033-038>043-046>054-057>066-NYZ062>081-082-084-281000-
EAST


CITY           SKY/WX    TMP DP  RH WIND       PRES   REMARKS
ALBANY         MOCLDY    40  37  89 CALM      29.94S
GLENS FALLS    LGT RAIN  35  34  96 CALM      29.93F VSB 3/4
POUGHKEEPSIE   CLOUDY    39  39 100 CALM      29.93F FOG
NEWBURGH       LGT RAIN  43  43 100 NE7       29.94F FOG
MONTGOMERY     CLOUDY    41  41 100 CALM      29.92R FOG
WHITE PLAINS   RAIN      41  40  96 SE9       29.94S VSB 1
ISLIP          CLOUDY    42  42 100 NE6       29.96F
NEW YORK CITY  RAIN      42  40  92 N7        29.97R VSB 1/4
CENTRAL PARK   LGT RAIN  43  42  97 NE7       29.97S FOG
$$

NYZ005>009-017-018-044>046-055-056-281000-
CENTRAL


CITY           SKY/WX    TMP DP  RH WIND       PRES   REMARKS
FULTON         CLOUDY    41  39  93 E3        29.87F
SYRACUSE       CLOUDY    40  39  97 E6        29.87F
ROME           CLOUDY    39  39 100 SE8       29.91F WCI  33
ELMIRA         FOG       45  43  93 CALM      29.87S VSB 1/2
BINGHAMTON     MOCLDY    44  43  96 S5        29.87F
MONTICELLO     MOCLDY    41  41 100 CALM      29.92S
$$

NYZ026>034-041>043-087-281000-
NORTH


CITY           SKY/WX    TMP DP  RH WIND       PRES   REMARKS
WATERTOWN      CLOUDY    45  44  97 CALM      29.87S FOG
FORT DRUM      NOT AVBL
MASSENA        LGT RAIN  35  35 100 CALM      29.88S FOG
SARANAC LAKE   FOG       37  37 100 CALM      29.86S VSB 1/2
PLATTSBURGH    CLOUDY    36  34  92 W3        29.89F
$$

NYZ001>004-010>016-019>021-085-281000-
WEST


CITY           SKY/WX    TMP DP  RH WIND       PRES   REMARKS
NIAGARA FALLS  CLOUDY    48  44  86 CALM      29.86F
BUFFALO        CLOUDY    46  43  89 S5        29.87S
DUNKIRK        MOCLDY    40  40 100 CALM      29.87S FOG
JAMESTOWN      PTCLDY    46  45  93 CALM      29.85F
WELLSVILLE     FOG       47  45  93 CALM      29.87F VSB 1/2
ROCHESTER      CLOUDY    49  47  93 SW3       29.87S
PENN YAN       CLOUDY    47  44  90 SW3       29.87F FOG
$$

             KEY
       WCI = WIND CHILL INDEX
       VSB = VISIBILITY
       HX  = HEAT INDEX
$$




USA.gov is the U.S. government's official web portal to all federal, state and local government web resources and services.